This is the latest recevied weather packets stored in our database for station/object KC2GYU. If no packets are shown the sender has not sent any weather packets the latest 10 day(s).
| Time | Temp. | Humidity | Pressure | Rain* | Wind** | Luminosity | Snow |
|---|---|---|---|---|---|---|---|
| 1777571442 | 16.67° C | 75% | 1008 hPa | 0 mm | - | 262 W/m² | - |
| 1777571137 | 17.22° C | 76% | 1008 hPa | 0 mm | - | 236 W/m² | - |
| 1777570834 | 17.22° C | 75% | 1008.1 hPa | 0 mm | - | 301 W/m² | - |
| 1777570530 | 16.67° C | 77% | 1008.1 hPa | 0 mm | - | 234 W/m² | - |
| 1777570226 | 17.22° C | 74% | 1008.1 hPa | 0 mm | - | 387 W/m² | - |
| 1777569921 | 17.22° C | 75% | 1008 hPa | 0 mm | - | 306 W/m² | - |
| 1777569617 | 16.67° C | 78% | 1008.2 hPa | 0 mm | - | 698 W/m² | - |
| 1777569314 | 16.67° C | 77% | 1008.2 hPa | 0 mm | - | 245 W/m² | - |
| 1777569011 | 16.67° C | 78% | 1007.9 hPa | 0 mm | - | 715 W/m² | - |
| 1777568707 | 16.11° C | 78% | 1008 hPa | 0 mm | - | 298 W/m² | - |
| 1777568405 | 16.67° C | 79% | 1008.1 hPa | 0 mm | - | 309 W/m² | - |
| 1777568102 | 16.11° C | 80% | 1008.2 hPa | 0 mm | - | 417 W/m² | - |
| 1777567798 | 16.11° C | 82% | 1008.2 hPa | 0 mm | - | 317 W/m² | - |
| 1777567494 | 16.11° C | 82% | 1008.1 hPa | 0 mm | - | 241 W/m² | - |
| 1777567193 | 15.56° C | 82% | 1008.5 hPa | 0 mm | - | 204 W/m² | - |
| 1777566891 | 15.56° C | 82% | 1008.2 hPa | 0 mm | - | 187 W/m² | - |
| 1777566588 | 16.11° C | 82% | 1008.4 hPa | 0 mm | - | 121 W/m² | - |
| 1777566285 | 17.22° C | 80% | 1008.1 hPa | 0 mm | - | 229 W/m² | - |
| 1777565983 | 16.67° C | 82% | 1008.2 hPa | 0 mm | - | 266 W/m² | - |
| 1777565683 | 16.11° C | 82% | 1008.3 hPa | 0 mm | - | 649 W/m² | - |
| 1777565380 | 15° C | 84% | 1008.4 hPa | 0 mm | - | 568 W/m² | - |
| 1777565076 | 15° C | 87% | 1008.2 hPa | 0 mm | - | 284 W/m² | - |
| 1777564772 | 14.44° C | 88% | 1008.5 hPa | 0 mm | - | 265 W/m² | - |
| 1777564467 | 14.44° C | 88% | 1008.7 hPa | 0 mm | - | 250 W/m² | - |
| 1777564163 | 14.44° C | 89% | 1008.6 hPa | 0 mm | - | 187 W/m² | - |
* Rain latest hour (hover to see other rain measurements)
** Current wind speed in m/s (hover to see current wind gust speed)